When you browse on this site, cookies collect data to enhance your experience and personalize the content and advertising you see.
Visit our Privacy Policy to learn more. By continuing to use the site, you agree to this use of cookies and data.
  • In Spain
  • List of Countries
  • For 7 days
  • Water Temperature
  • Satellite Maps
  • Weather Map
  • Weather Widgets
  • user-avatar
    Login

    Hourly Weather Eisenstadt

    Today, 18 April, Thursday

    Time Temperature Precipitation Wind Pressure Humidity
    00:00 +7°C° 0 mm 2 mps 728 mmHg 86%
    01:00 +7°C° 0 mm 2 mps 728 mmHg 88%
    02:00 +6°C° 0 mm 2 mps 728 mmHg 88%
    03:00 +6°C° 0 mm 2 mps 728 mmHg 88%
    04:00 +7°C° 0 mm 1 mps 729 mmHg 88%
    05:00 +7°C° 0 mm 2 mps 729 mmHg 83%
    06:00 +8°C° 0 mm 2 mps 729 mmHg 79%
    07:00 +9°C° 0 mm 2 mps 730 mmHg 73%
    08:00 +10°C° 0 mm 2 mps 730 mmHg 68%
    09:00 +13°C° 0 mm 2 mps 730 mmHg 63%
    10:00 +14°C° 0 mm 2 mps 730 mmHg 58%
    11:00 +14°C° 0 mm 3 mps 730 mmHg 54%
    12:00 +16°C° 0 mm 3 mps 730 mmHg 51%
    13:00 +16°C° 0 mm 3 mps 730 mmHg 48%
    14:00 +16°C° 0 mm 3 mps 730 mmHg 49%
    15:00 +16°C° 0 mm 3 mps 730 mmHg 50%
    16:00 +16°C° 0 mm 3 mps 730 mmHg 50%
    17:00 +14°C° 0 mm 2 mps 730 mmHg 57%
    18:00 +12°C° 0 mm 1 mps 730 mmHg 64%
    19:00 +11°C° 0 mm 1 mps 730 mmHg 71%
    20:00 +10°C° 0 mm 1 mps 730 mmHg 71%
    21:00 +10°C° 0 mm 1 mps 731 mmHg 72%
    22:00 +8°C° 0 mm 2 mps 732 mmHg 72%
    23:00 +9°C° 0 mm 1 mps 732 mmHg 73%

    Tomorrow, 19 April, Friday

    Time Temperature Precipitation Wind Pressure Humidity
    00:00 +9°C° 0 mm 1 mps 732 mmHg 73%
    01:00 +9°C° 0 mm 1 mps 732 mmHg 74%
    02:00 +9°C° 0 mm 1 mps 732 mmHg 75%
    03:00 +8°C° 0 mm 1 mps 732 mmHg 76%
    04:00 +8°C° 0 mm 1 mps 732 mmHg 77%
    05:00 +9°C° 0 mm 1 mps 732 mmHg 74%
    06:00 +10°C° 0 mm 1 mps 732 mmHg 71%
    07:00 +11°C° 0 mm 1 mps 732 mmHg 68%
    08:00 +13°C° 0 mm 1 mps 733 mmHg 62%
    09:00 +15°C° 0 mm 1 mps 733 mmHg 56%
    10:00 +17°C° 0 mm 2 mps 733 mmHg 50%
    11:00 +18°C° 0 mm 2 mps 732 mmHg 47%
    12:00 +18°C° 0 mm 2 mps 732 mmHg 44%
    13:00 +19°C° 0 mm 2 mps 732 mmHg 41%
    14:00 +19°C° 0 mm 2 mps 732 mmHg 41%
    15:00 +19°C° 0 mm 2 mps 731 mmHg 42%
    16:00 +19°C° 0 mm 3 mps 731 mmHg 42%
    17:00 +17°C° 0 mm 2 mps 731 mmHg 49%
    18:00 +15°C° 0 mm 2 mps 731 mmHg 56%
    19:00 +13°C° 0 mm 2 mps 731 mmHg 63%
    20:00 +12°C° 0 mm 2 mps 731 mmHg 65%
    21:00 +12°C° 0 mm 2 mps 731 mmHg 66%
    22:00 +10°C° 0 mm 2 mps 732 mmHg 67%
    23:00 +9°C° 0 mm 2 mps 732 mmHg 68%

    Day after tomorrow, 20 April, Saturday

    Time Temperature Precipitation Wind Pressure Humidity
    00:00 +8°C° 0 mm 2 mps 732 mmHg 69%
    01:00 +8°C° 0 mm 2 mps 732 mmHg 70%
    02:00 +8°C° 0 mm 1 mps 732 mmHg 73%
    03:00 +8°C° 0 mm 1 mps 732 mmHg 76%
    04:00 +6°C° 0 mm 0 mps 732 mmHg 79%
    05:00 +7°C° 0 mm 0 mps 732 mmHg 73%
    06:00 +9°C° 0 mm 0 mps 732 mmHg 68%
    07:00 +10°C° 0 mm 0 mps 732 mmHg 63%
    08:00 +12°C° 0 mm 1 mps 732 mmHg 56%
    09:00 +14°C° 0 mm 1 mps 732 mmHg 48%
    10:00 +16°C° 0 mm 2 mps 732 mmHg 41%
    11:00 +16°C° 0 mm 2 mps 732 mmHg 39%
    12:00 +17°C° 0 mm 2 mps 731 mmHg 38%
    13:00 +18°C° 0 mm 2 mps 731 mmHg 36%
    14:00 +18°C° 0 mm 2 mps 731 mmHg 37%
    15:00 +17°C° 0 mm 2 mps 730 mmHg 38%
    16:00 +17°C° 0 mm 2 mps 730 mmHg 39%
    17:00 +15°C° 0 mm 2 mps 729 mmHg 46%
    18:00 +13°C° 0 mm 1 mps 729 mmHg 53%
    19:00 +11°C° 0 mm 1 mps 729 mmHg 61%
    20:00 +11°C° 0 mm 1 mps 729 mmHg 62%
    21:00 +10°C° 0 mm 1 mps 729 mmHg 64%
    22:00 +9°C° 0 mm 1 mps 729 mmHg 65%
    23:00 +9°C° 0 mm 1 mps 729 mmHg 66%

    21 April, Sunday

    Time Temperature Precipitation Wind Pressure Humidity
    00:00 +9°C° 0 mm 1 mps 729 mmHg 67%
    01:00 +8°C° 0 mm 1 mps 728 mmHg 69%
    02:00 +8°C° 0 mm 1 mps 728 mmHg 69%
    03:00 +8°C° 0 mm 1 mps 728 mmHg 70%
    04:00 +7°C° 0 mm 1 mps 727 mmHg 71%
    05:00 +9°C° 0 mm 1 mps 727 mmHg 67%
    06:00 +10°C° 0 mm 1 mps 727 mmHg 64%
    07:00 +10°C° 0 mm 0 mps 727 mmHg 61%
    08:00 +13°C° 0 mm 1 mps 727 mmHg 55%
    09:00 +15°C° 0 mm 1 mps 727 mmHg 49%
    10:00 +18°C° 0 mm 1 mps 727 mmHg 43%
    11:00 +18°C° 0 mm 1 mps 727 mmHg 41%
    12:00 +19°C° 0 mm 1 mps 726 mmHg 38%
    13:00 +19°C° 0 mm 2 mps 726 mmHg 36%
    14:00 +19°C° 0 mm 1 mps 725 mmHg 37%
    15:00 +19°C° 0 mm 1 mps 725 mmHg 38%
    16:00 +19°C° 0 mm 1 mps 724 mmHg 39%
    17:00 +16°C° 0 mm 1 mps 724 mmHg 45%
    18:00 +14°C° 0 mm 1 mps 724 mmHg 51%
    19:00 +12°C° 0 mm 1 mps 724 mmHg 57%
    20:00 +12°C° 0 mm 1 mps 724 mmHg 60%
    21:00 +11°C° 0 mm 1 mps 724 mmHg 63%
    22:00 +10°C° 0 mm 1 mps 724 mmHg 66%
    23:00 +10°C° 0 mm 1 mps 724 mmHg 68%

    22 April, Monday

    Time Temperature Precipitation Wind Pressure Humidity
    00:00 +9°C° 0 mm 1 mps 724 mmHg 70%
    01:00 +9°C° 0 mm 1 mps 723 mmHg 72%
    02:00 +9°C° 0 mm 1 mps 723 mmHg 73%
    03:00 +8°C° 0 mm 1 mps 723 mmHg 74%
    04:00 +7°C° 0 mm 2 mps 722 mmHg 75%
    05:00 +8°C° 0 mm 2 mps 722 mmHg 72%
    06:00 +9°C° 0 mm 2 mps 722 mmHg 69%
    07:00 +10°C° 0 mm 2 mps 722 mmHg 65%
    08:00 +12°C° 0 mm 3 mps 722 mmHg 59%
    09:00 +14°C° 0 mm 4 mps 722 mmHg 53%
    10:00 +15°C° 0 mm 5 mps 721 mmHg 47%
    11:00 +16°C° 0 mm 5 mps 721 mmHg 45%
    12:00 +17°C° 0 mm 6 mps 721 mmHg 44%
    13:00 +19°C° 0 mm 6 mps 720 mmHg 43%
    14:00 +19°C° 0 mm 6 mps 720 mmHg 44%
    15:00 +19°C° 0 mm 6 mps 719 mmHg 45%
    16:00 +19°C° 0 mm 6 mps 718 mmHg 46%
    17:00 +16°C° 0 mm 5 mps 718 mmHg 54%
    18:00 +15°C° 0 mm 4 mps 718 mmHg 61%
    19:00 +13°C° 0 mm 4 mps 718 mmHg 68%
    20:00 +12°C° 0 mm 3 mps 718 mmHg 70%
    21:00 +11°C° 0 mm 3 mps 718 mmHg 73%
    22:00 +11°C° 0 mm 3 mps 718 mmHg 76%
    23:00 +10°C° 0 mm 3 mps 718 mmHg 78%

    23 April, Tuesday

    Time Temperature Precipitation Wind Pressure Humidity
    00:00 +10°C° 0 mm 3 mps 718 mmHg 79%
    01:00 +10°C° 0 mm 3 mps 718 mmHg 81%
    02:00 +10°C° 0 mm 3 mps 718 mmHg 82%
    03:00 +9°C° 0 mm 3 mps 717 mmHg 84%
    04:00 +9°C° 0 mm 3 mps 717 mmHg 85%
    05:00 +9°C° 0.1 mm 3 mps 718 mmHg 84%
    06:00 +10°C° 0.1 mm 3 mps 718 mmHg 84%
    07:00 +10°C° 0.1 mm 3 mps 718 mmHg 83%
    08:00 +10°C° 0.1 mm 3 mps 718 mmHg 83%
    09:00 +11°C° 0.1 mm 4 mps 718 mmHg 84%
    10:00 +11°C° 0.1 mm 4 mps 718 mmHg 84%
    11:00 +11°C° 0.4 mm 4 mps 718 mmHg 87%
    12:00 +10°C° 0.4 mm 4 mps 718 mmHg 90%
    13:00 +10°C° 0.4 mm 4 mps 718 mmHg 93%
    14:00 +10°C° 0.2 mm 4 mps 718 mmHg 91%
    15:00 +10°C° 0.2 mm 4 mps 718 mmHg 89%
    16:00 +10°C° 0.2 mm 4 mps 718 mmHg 87%
    17:00 +10°C° 0.1 mm 4 mps 718 mmHg 90%
    18:00 +10°C° 0.1 mm 3 mps 718 mmHg 92%
    19:00 +10°C° 0.1 mm 3 mps 718 mmHg 94%
    20:00 +10°C° 0.1 mm 2 mps 719 mmHg 94%
    21:00 +10°C° 0.1 mm 2 mps 719 mmHg 95%
    22:00 +10°C° 0.1 mm 2 mps 719 mmHg 95%
    23:00 +9°C° 0 mm 2 mps 719 mmHg 95%
    Show more